Regional Weather Roundup
Issued by NWS

Home | Current Version | Previous Version | Graphics & Text | Print | Product List | Glossary On
Versions: 1 2 3 4 5 6 7 8 9 10 11 12 13 14 15 16 17 18 19 20 21 22 23 24 25 26 27 28 29 30 31 32 33 34 35 36 37 38 39 40 41 42 43 44 45 46 47 48 49 50
000
ASUS43 KDTX 202210
RWRMI
MICHIGAN HOURLY REGIONAL WEATHER ROUNDUP
NATIONAL WEATHER SERVICE DETROIT/PONTIAC MI
ISSUED BY NATIONAL WEATHER SERVICE GRAND RAPIDS MI
500 PM EST MON FEB 20 2017

NOTE: "FAIR" INDICATES FEW OR NO CLOUDS BELOW 12,000 FEET WITH NO
SIGNIFICANT WEATHER AND/OR OBSTRUCTION TO VISIBILITY.

MIZ047>049-052>055-059>063-066>070-074>076-081>083-202300-
SOUTHEAST LOWER MICHIGAN

CITY           SKY/WX    TMP DP  RH WIND       PRES   REMARKS
ADRIAN         CLOUDY    49  34  56 SE12      30.20S
ALMA           MOSUNNY   54  33  44 SE10G17   30.16R
ANN ARBOR      CLOUDY    53  33  46 E13       30.20F
BAD AXE        MOSUNNY   41  33  75 E5        30.23F
DETROIT CITY   MOSUNNY   46  34  62 E10       30.25S
DETROIT        CLOUDY    50  33  52 E10       30.23S
FLINT          CLOUDY    50  33  52 SE13      30.20S
GROSSE ILE     MOSUNNY   47  33  56 E7        30.22S
HILLSDALE      CLOUDY    52  36  54 E10       30.16S
HOWELL         CLOUDY    53  32  45 SE14      30.18S

CITY           SKY/WX    TMP DP  RH WIND       PRES   REMARKS
JACKSON        CLOUDY    53  33  46 SE13G20   30.17S
LANSING        PTSUNNY   56  33  42 SE15      30.15F
MASON          MOSUNNY   54  36  50 SE12G20   30.16F
MONROE         CLOUDY    48  33  56 E10G20    30.21F
MT. CLEMENS    MOSUNNY   44  36  72 E10       30.24S
PONTIAC        CLOUDY    47  31  53 E12       30.21S
PORT HOPE        N/A     35  32  88 SE8       30.25S WCI  29
PORT HURON     MOSUNNY   45  34  65 SE9       30.26S
TRI CITIES     CLOUDY    44  38  79 NE12      30.18F
YPSILANTI      CLOUDY    52  35  52 E13       30.21F
$$
MIZ043>046-050>051-056>058-064>065-071>073-077>080-202300-
SOUTHWEST LOWER MICHIGAN

CITY           SKY/WX    TMP DP  RH WIND       PRES   REMARKS
BATTLE CREEK   PTSUNNY   59  35  40 SE14      30.13F
BENTON HARBOR  MOSUNNY   64  40  41 SE14G22   30.04F
BIG RAPIDS     CLOUDY    51  34  52 SE10      30.12S
COLDWATER      PTSUNNY   58  36  42 E10G18    30.13F
HOLLAND        PTSUNNY   63  36  36 SE15      30.06F
GRAND RAPIDS   CLOUDY    58  35  42 SE17      30.10F
KALAMAZOO      CLOUDY    61  35  37 SE10      30.11F
MARSHALL       CLOUDY    57  33  40 SE9       30.14S
MOUNT PLEASANT CLOUDY    50  36  57 E7        30.16R
MUSKEGON       CLOUDY    60  37  42 E15       30.05F
STURGIS        CLOUDY    59  39  47 SE14      30.11F
$$
MIZ016>042-202300-
NORTHERN LOWER MICHIGAN

CITY           SKY/WX    TMP DP  RH WIND       PRES   REMARKS
ALPENA         MOSUNNY   35  28  75 SE16      30.24F WCI  25
BEAVER ISLAND  CLOUDY    40  32  73 E13       30.09F WCI  32
BELLAIRE       CLOUDY    49  32  53 SE7       30.13S
CADILLAC       CLOUDY    46  32  58 SE10      30.11F
CHARLEVOIX     CLOUDY    48  31  51 E8        30.14R
GAYLORD        CLOUDY    46  28  49 SE14G20   30.15R
HOUGHTON LAKE  CLOUDY    45  31  58 SE10      30.17F
MANISTEE       MOSUNNY   53  34  48 E14G21    30.04F
OSCODA         MOSUNNY   36  30  79 E7        30.25F WCI  31
PELLSTON       CLOUDY    42  29  59 E13       30.16R
TRAVERSE CITY  CLOUDY    52  31  44 SE8       30.08F
LUDINGTON      MOSUNNY   57  36  44 SE15G21   30.03F
$$
MIZ007>008-015-202300-
EASTERN UPPER MICHIGAN

CITY           SKY/WX    TMP DP  RH WIND       PRES   REMARKS
KINROSS        MOSUNNY   35  25  66 SE18      30.19S WCI  24
MACKINAC ISLAN CLOUDY    33  29  85 E21G33    30.16F WCI  21
NEWBERRY       CLOUDY    36  29  76 SE18      30.11S WCI  26
S. S. MARIE    MOSUNNY   35  23  61 E14G23    30.19F WCI  26
$$
MIZ004>006-011>014-085-202300-
CENTRAL UPPER MICHIGAN

CITY           SKY/WX    TMP DP  RH WIND       PRES   REMARKS
MANISTIQUE     MOSUNNY   36  32  87 E17       30.07F WCI  25
ESCANABA       CLOUDY    41  33  73 E12       30.02F
MENOMINEE      CLOUDY    45  33  63 SE5       29.98F
SAWYER-GWINN   SUNNY     41  30  65 S20G26    29.96F
$$
MIZ001>003-009>011-084-202300-
WESTERN UPPER MICHIGAN

CITY           SKY/WX    TMP DP  RH WIND       PRES   REMARKS
IRON MOUNTAIN  CLOUDY    43  30  60 SE8       29.93F
HOUGHTON       CLOUDY    42  30  62 E13       29.83F
COPPER HARBOR    N/A     41  31  67 SW20G36   29.86F
IRONWOOD       RAIN      47  43  86 SE22      29.70F FOG
$$

ABBREVIATIONS USED IN REMARKS
   TC - TEMPERATURE IN CELSIUS
  WCI - WIND CHILL INDEX
   HX - HEAT INDEX
  VSB - VISIBILITY





USA.gov is the U.S. government's official web portal to all federal, state and local government web resources and services.